Location: Le Castellard
(44.1862°N, 6.1301°E)
Time: 19:15:33
(UTC+00:00)

BREEZE M DEB (TANK) - Pass Details

Date: 18 January 2020
Orbit: 322 x 13661 km, 49.5° (Epoch: 16 February)

Event Time Altitude Azimuth Distance (km) Brightness Sun altitude
Exits shadow 06:04:13 13° 252° (WSW) 1,251 4.2 -11.0°
Maximum altitude 06:06:31 76° 338° (NNW) 542 2.7 -10.6°
Drops below altitude 10° 06:12:26 10° 65° (ENE) 3,121 7.3 -9.6°
Sets 06:17:28 0° 67° (ENE) 5,431 8.6 -8.8°
